Date,TemperatureHighF,TemperatureAvgF,TemperatureLowF,DewpointHighF,DewpointAvgF,DewpointLowF,HumidityHigh,HumidityAvg,HumidityLow,PressureMaxIn,PressureMinIn,WindSpeedMaxMPH,WindSpeedAvgMPH,GustSpeedMaxMPH,PrecipitationSumIn
2013-1-20,62,53,38,44,40,33,84,61,48,29.78,29.65,5,1,14,0.00
2013-1-21,58,42,27,38,34,26,100,75,44,29.78,29.53,5,1,12,0.00
2013-1-22,41,31,20,27,15,7,75,52,31,29.98,29.62,5,1,16,0.00
2013-1-23,38,26,14,21,16,13,100,70,42,30.07,29.76,3,0,10,0.00
2013-1-24,35,29,18,28,19,12,82,67,48,30.22,29.64,9,2,26,0.00
2013-1-25,28,22,15,28,19,12,100,89,59,30.22,29.78,2,0,6,0.00
2013-1-26,34,29,24,33,29,23,100,99,96,30.11,29.78,1,0,5,0.00
2013-1-27,38,29,20,34,27,20,100,93,76,30.30,30.10,2,0,8,0.00
2013-1-28,51,40,28,49,38,27,100,92,78,30.21,29.90,3,1,9,0.00
2013-1-29,72,59,49,63,56,48,100,90,71,29.91,29.77,3,1,9,0.00
2013-1-30,73,67,60,70,66,60,100,96,88,29.77,29.08,10,5,26,0.00
2013-1-31,69,47,34,69,35,26,100,64,49,29.69,29.05,10,3,21,0.00
2013-2-1,41,33,24,34,24,14,81,70,42,30.08,29.55,4,1,14,0.00
2013-2-2,42,28,15,34,19,14,97,71,41,30.10,29.71,5,0,12,0.00
2013-2-3,48,40,34,38,35,27,100,81,57,29.72,29.53,3,1,13,0.00
2013-2-4,46,36,26,31,28,23,95,72,52,29.83,29.67,3,0,9,0.00
2013-2-5,58,44,37,43,36,31,92,74,56,29.70,29.57,3,1,12,0.00
2013-2-6,59,41,28,43,34,28,100,81,45,29.98,29.65,4,1,12,0.00
2013-2-7,49,41,33,46,40,33,100,95,83,30.05,29.70,4,1,14,0.00
2013-2-8,53,45,41,50,44,35,100,95,78,29.70,29.47,5,2,16,0.00
2013-2-9,50,39,28,35,29,24,86,70,43,30.06,29.70,4,1,12,0.00
2013-2-10,51,39,25,39,31,23,100,74,51,30.19,29.96,2,0,9,0.00
2013-2-11,63,55,44,63,55,40,100,99,83,29.93,29.60,5,2,12,0.00
2013-2-12,61,53,44,58,44,37,100,76,47,29.77,29.60,4,1,9,0.00
2013-2-13,48,46,44,47,44,38,100,92,82,29.64,29.33,2,0,9,0.00
2013-2-14,51,41,30,40,36,30,100,84,62,29.77,29.49,3,0,7,0.00
2013-2-15,62,41,28,44,34,27,97,79,47,29.78,29.62,3,0,9,0.00
2013-2-16,42,36,33,40,36,32,100,97,86,29.66,29.51,3,0,7,0.12
2013-2-17,34,29,25,32,22,14,100,75,48,29.96,29.56,5,1,16,0.01
2013-2-18,50,32,16,27,20,13,90,64,38,30.11,29.96,5,1,9,0.05
2013-2-19,54,44,34,52,38,23,96,79,58,29.96,29.52,6,2,17,0.06
2013-2-20,50,40,31,40,26,22,93,58,36,29.84,29.63,5,1,15,0.01
2013-2-21,52,37,24,29,25,20,88,63,40,29.97,29.81,3,1,10,0.00
2013-2-22,41,37,32,37,31,23,100,81,58,30.05,29.84,3,0,7,0.15
2013-2-23,44,41,37,44,41,37,100,100,100,29.85,29.49,2,0,8,0.58
2013-2-24,61,48,38,50,42,31,100,81,48,29.73,29.47,5,1,12,0.03
2013-2-25,42,36,29,32,26,23,82,68,52,29.92,29.73,3,0,12,0.01
2013-2-26,57,44,30,57,42,25,100,91,78,29.85,29.26,3,1,16,0.31
2013-2-27,60,50,43,52,44,38,100,82,56,29.47,29.29,5,1,13,0.01
2013-2-28,49,42,36,40,34,29,98,74,52,29.53,29.38,3,0,12,0.00
2013-3-1,48,40,31,35,31,28,93,72,56,29.59,29.51,3,0,12,0.00
2013-3-2,46,39,32,32,29,23,84,69,55,29.59,29.49,3,1,10,0.00
2013-3-3,45,36,28,28,25,20,81,65,49,29.65,29.51,5,1,13,0.00
2013-3-4,49,36,26,25,22,19,80,59,35,29.78,29.64,4,1,20,0.00
2013-3-5,53,40,28,45,36,24,100,85,50,29.78,29.29,2,0,12,0.02
2013-3-6,42,39,36,42,38,34,100,95,80,29.68,29.15,8,3,26,0.02
2013-3-7,49,41,32,38,34,29,98,78,61,29.90,29.68,3,1,12,0.00
2013-3-8,53,41,29,35,31,26,92,69,48,29.96,29.81,6,2,20,0.00
2013-3-9,61,44,30,56,33,28,100,67,38,30.02,29.93,4,1,12,0.00
2013-3-10,66,47,28,40,32,27,99,63,28,30.03,29.91,3,1,8,0.00
2013-3-11,70,54,34,56,46,32,96,76,58,29.96,29.66,6,2,13,0.00
2013-3-12,69,61,49,67,58,41,100,90,72,29.67,29.43,5,2,15,0.27
2013-3-13,56,46,33,42,35,26,100,68,42,29.80,29.62,5,1,14,0.01
2013-3-14,52,40,29,28,25,22,80,57,37,29.91,29.78,5,1,14,0.01
2013-3-15,61,44,26,40,31,21,86,61,44,29.86,29.58,5,1,15,0.00
2013-3-16,76,60,47,61,49,38,98,68,52,29.58,29.30,5,1,14,0.00
2013-3-17,57,48,40,56,47,39,100,96,87,29.90,29.50,6,2,13,0.00
2013-3-18,44,40,37,44,40,37,100,100,100,29.91,29.57,3,1,9,0.16
2013-3-19,66,51,41,53,40,23,100,74,28,29.70,29.50,5,1,16,0.15
2013-3-20,55,46,35,30,24,17,75,43,31,29.80,29.48,4,1,9,0.01
2013-3-21,44,36,29,33,27,17,94,71,40,29.65,29.41,5,1,15,0.00
2013-3-22,52,36,23,24,20,16,75,54,30,29.76,29.64,5,1,12,0.00
2013-3-23,56,41,28,36,30,24,89,68,40,29.75,29.60,2,0,8,0.00
2013-3-24,40,36,30,39,35,28,98,94,83,29.63,29.28,4,1,16,0.84
2013-3-25,48,40,35,40,34,28,100,83,54,29.47,29.23,6,1,16,0.04
2013-3-26,48,41,33,35,32,27,85,70,56,29.77,29.47,4,1,12,0.00
2013-3-27,52,41,30,33,30,26,92,66,42,29.90,29.77,5,1,12,0.00
2013-3-28,55,43,29,34,30,26,90,64,41,29.97,29.83,5,1,14,0.00
2013-3-29,60,45,28,37,32,25,95,64,39,30.01,29.85,3,1,12,0.00
2013-3-30,66,49,32,41,36,29,91,64,36,29.93,29.78,4,1,9,0.00
2013-3-31,67,54,45,62,52,-100,100,94,80,29.81,29.49,5,1,10,0.17
2013-4-1,72,60,53,57,53,41,100,79,48,29.67,29.48,4,1,14,0.14
2013-4-2,59,48,34,42,34,29,98,62,33,29.85,29.66,5,1,15,0.01
2013-4-3,60,46,33,38,31,26,97,60,31,30.00,29.84,4,1,16,0.00
2013-4-4,50,42,36,43,35,29,100,78,55,30.09,29.62,5,1,14,0.80
2013-4-5,64,48,39,51,45,39,100,90,63,29.70,29.54,3,1,10,0.64
2013-4-6,62,49,36,43,38,34,100,70,38,30.00,29.70,6,1,15,0.01
2013-4-7,72,53,31,51,43,31,100,72,47,29.99,29.80,5,1,14,0.01
2013-4-8,79,66,52,65,58,52,100,79,56,29.86,29.73,6,2,20,0.00
2013-4-9,85,71,58,67,63,58,100,77,51,29.86,29.73,5,1,10,0.00
2013-4-10,88,74,62,71,67,61,100,78,56,29.78,29.62,5,2,14,0.00
2013-4-11,82,72,62,71,66,62,100,83,57,29.68,29.49,7,2,14,0.00
2013-4-12,81,72,66,74,70,58,100,92,77,29.51,29.29,6,2,14,0.28
2013-4-13,74,63,51,58,50,45,91,65,42,29.69,29.42,3,1,12,0.02
2013-4-14,80,64,44,57,52,44,100,70,37,29.80,29.68,3,1,10,0.00
2013-4-15,69,63,56,63,59,54,100,89,70,29.92,29.75,5,1,12,0.00
2013-4-16,77,64,57,69,62,57,100,93,72,30.01,29.89,3,0,7,0.00
2013-4-17,85,69,55,72,66,55,100,90,65,29.93,29.79,3,1,9,0.00
2013-4-18,80,69,59,69,64,59,100,86,64,29.90,29.75,5,1,12,0.00
2013-4-19,82,72,63,75,70,63,100,94,78,29.75,29.41,6,2,15,0.15
2013-4-20,66,56,45,66,49,41,100,80,50,29.96,29.47,5,1,13,0.15
2013-4-21,60,49,38,47,43,38,100,80,58,30.21,29.96,6,1,14,0.00
2013-4-22,59,47,34,49,43,34,100,88,67,30.20,29.97,6,2,15,0.00
2013-4-23,67,55,48,57,50,46,100,87,66,29.97,29.82,5,2,12,0.00
2013-4-24,77,61,43,64,56,43,100,85,62,29.85,29.65,5,1,14,0.00
2013-4-25,69,60,49,62,53,48,100,78,56,29.98,29.69,4,1,12,0.00
2013-4-26,73,57,41,54,48,41,100,76,39,30.11,29.97,3,0,12,0.00
2013-4-27,73,61,47,56,51,47,100,74,45,30.09,29.96,2,0,8,0.00
2013-4-28,66,59,55,59,53,-100,100,84,64,29.98,29.82,1,0,6,0.05
2013-4-29,71,62,55,68,62,55,100,98,85,29.82,29.67,1,0,5,0.05
2013-4-30,67,62,58,65,61,58,100,98,90,29.86,29.70,2,1,10,0.04
2013-5-1,60,59,57,60,59,57,100,100,100,30.03,29.85,5,2,14,0.00
2013-5-2,65,59,51,62,58,50,100,98,89,30.04,29.95,3,1,12,0.00
2013-5-3,69,56,46,60,52,46,100,88,59,29.97,29.88,6,2,18,0.00
2013-5-4,61,54,48,57,53,48,100,95,88,29.93,29.80,4,2,12,0.00
2013-5-5,60,54,47,59,54,47,100,98,92,29.83,29.70,4,2,17,0.00
2013-5-6,70,62,56,70,62,56,100,99,94,29.74,29.54,4,1,14,0.00
2013-5-7,73,64,52,65,60,52,100,88,62,29.64,29.54,2,0,7,0.00
2013-5-8,71,59,48,68,58,48,100,96,74,29.71,29.62,2,0,8,0.00
2013-5-9,81,65,49,71,61,49,100,90,61,29.75,29.66,3,0,12,0.00
2013-5-10,86,70,56,72,63,-100,100,84,59,29.75,29.63,3,0,10,0.00
2013-5-11,83,72,66,75,69,65,100,90,68,29.65,29.48,4,1,10,0.05
2013-5-12,72,64,49,66,58,-100,100,83,59,29.72,29.48,4,1,10,0.05
2013-5-13,65,54,43,49,45,42,100,74,44,29.87,29.72,3,1,12,0.00
2013-5-14,70,54,39,54,46,39,100,76,44,29.95,29.77,3,0,9,0.00
2013-5-15,88,68,53,71,60,49,89,76,54,29.78,29.56,3,1,13,0.00
2013-5-16,85,70,64,70,43,-100,99,79,57,29.65,29.57,3,1,13,0.00
2013-5-17,87,72,62,76,62,-100,100,85,59,29.79,29.65,2,0,7,0.00
2013-5-18,74,68,63,73,68,63,100,97,80,29.85,29.77,2,0,7,0.04
2013-5-19,80,69,65,76,69,65,100,99,85,29.86,29.76,4,0,13,0.76
2013-5-20,72,69,67,72,69,67,100,100,100,29.83,29.72,1,0,5,0.93
2013-5-21,83,74,68,82,74,68,100,100,94,29.74,29.64,2,0,9,0.04
2013-5-22,84,75,70,79,73,70,100,96,80,29.72,29.60,3,1,12,0.00
2013-5-23,83,72,68,78,71,68,100,98,80,29.66,29.51,2,0,7,0.04
2013-5-24,69,65,49,69,61,46,100,89,66,29.86,29.49,5,1,14,0.03
2013-5-25,72,55,40,56,47,40,100,77,45,29.95,29.81,4,1,10,0.00
2013-5-26,73,58,43,60,50,43,100,80,46,29.97,29.86,3,0,8,0.00
2013-5-27,80,64,46,65,57,46,100,80,55,29.98,29.86,3,0,7,0.00
2013-5-28,85,71,55,75,67,55,100,88,71,29.95,29.83,3,1,10,0.00
2013-5-29,86,74,63,75,70,63,100,86,67,29.93,29.85,4,1,12,0.00
2013-5-30,88,75,62,76,70,62,100,88,62,29.96,29.87,2,0,10,0.00
2013-5-31,88,77,66,78,73,66,100,89,69,29.92,29.79,2,0,9,0.00
2013-6-1,89,78,68,77,74,68,100,87,67,29.84,29.71,3,1,10,0.00
2013-6-2,87,77,67,78,72,-100,100,88,69,29.75,29.60,3,1,9,0.00
2013-6-3,80,74,72,80,74,71,100,100,93,29.65,29.53,2,0,7,0.16
2013-6-4,80,72,64,79,69,64,100,92,73,29.81,29.61,5,1,10,0.01
2013-6-5,82,70,58,77,64,58,100,84,61,29.85,29.72,2,0,9,0.00
2013-6-6,77,69,61,75,69,61,100,98,84,29.76,29.54,2,0,8,0.13
2013-6-7,80,72,69,80,72,69,100,100,100,29.56,29.16,4,0,18,2.19
2013-6-8,84,75,70,80,74,69,100,97,83,29.78,29.51,3,0,12,0.06
2013-6-9,88,75,65,84,74,65,100,96,81,29.86,29.76,2,0,15,0.00
2013-6-10,84,76,72,84,76,72,100,100,98,29.80,29.59,3,1,12,0.00
2013-6-11,84,76,69,78,74,69,100,92,74,29.65,29.57,3,1,13,0.00
2013-6-12,90,74,65,83,73,65,100,97,77,29.65,29.55,2,0,9,0.02
2013-6-13,94,79,69,84,76,69,100,92,64,29.56,29.26,3,0,17,0.01
2013-6-14,77,67,61,69,65,60,100,93,68,29.70,29.38,5,0,13,0.01
2013-6-15,82,63,56,72,62,56,100,97,72,29.80,29.70,3,0,9,0.00
2013-6-16,86,69,64,79,67,62,100,93,78,29.81,29.69,2,0,12,0.00
2013-6-17,84,76,71,82,75,71,100,99,89,29.72,29.62,3,0,8,0.00
2013-6-18,83,75,71,82,75,71,100,100,95,29.65,29.41,2,0,9,0.00
2013-6-22,71,71,71,71,71,71,100,100,100,29.84,29.80,1,1,7,0.00
2013-6-23,85,76,70,81,75,70,100,97,86,29.91,29.81,2,0,7,0.00
2013-6-24,86,77,72,82,77,72,100,97,84,29.90,29.78,2,0,7,0.00
2013-6-25,86,75,71,83,75,71,100,99,88,29.82,29.69,2,0,12,0.00
2013-6-26,86,74,69,81,73,69,100,98,86,29.72,29.58,3,0,12,0.07
2013-6-27,88,73,69,82,72,69,100,99,81,29.62,29.42,2,0,8,0.07
2013-6-28,90,77,71,82,76,71,100,97,77,29.44,29.26,2,0,12,0.06
2013-6-29,84,75,70,81,74,70,100,99,88,29.41,29.29,5,0,13,0.06
2013-6-30,75,73,71,75,73,71,100,100,100,29.59,29.54,1,0,7,0.00
2013-7-1,81,75,71,81,75,71,100,100,98,29.71,29.55,2,0,8,0.00
2013-7-2,81,75,72,81,75,72,100,100,98,29.90,29.70,3,0,12,0.00
2013-7-3,86,77,73,83,76,73,100,99,90,29.95,29.87,2,0,7,0.13
2013-7-4,88,78,72,82,77,72,100,96,76,29.99,29.90,2,0,8,0.06
2013-7-5,85,75,71,82,75,71,100,99,84,29.99,29.88,2,0,7,0.00
2013-7-6,89,78,71,81,76,71,100,96,76,29.96,29.83,2,0,7,0.00
2013-7-7,88,78,69,81,76,69,100,95,78,29.89,29.76,3,0,9,0.00
2013-7-8,85,76,71,82,76,71,100,98,87,29.88,29.79,3,0,8,0.05
2013-7-9,89,76,71,83,75,71,100,98,83,29.86,29.77,2,0,8,0.02
2013-7-10,87,78,74,84,75,-100,100,95,86,29.81,29.65,3,0,9,0.00
2013-7-11,82,76,72,80,75,72,100,99,93,29.69,29.60,3,0,10,0.00
2013-7-12,77,73,70,76,73,70,100,100,98,29.72,29.57,2,0,7,0.00
2013-7-13,83,75,71,82,75,71,100,100,97,29.91,29.72,2,0,8,0.00
2013-7-14,86,78,70,82,76,70,100,97,85,30.01,29.91,2,0,9,0.00
2013-7-15,88,75,70,81,74,70,100,98,77,30.02,29.94,2,0,5,0.31
2013-7-16,91,76,69,85,75,69,100,99,78,29.96,29.88,1,0,5,0.36
2013-7-17,90,77,73,83,77,73,100,99,73,29.92,29.82,1,0,5,0.06
2013-7-18,91,77,72,85,77,72,100,99,79,29.84,29.74,1,0,3,0.03
2013-7-19,87,78,75,85,78,75,100,100,95,29.79,29.67,1,0,5,0.00
2013-7-20,87,79,75,83,77,-100,100,96,85,29.72,29.61,2,0,9,0.00
2013-7-21,86,77,73,83,77,73,100,99,88,29.69,29.60,2,0,8,0.00
2013-7-22,88,76,71,83,76,71,100,98,85,29.65,29.51,3,0,8,0.00
2013-7-23,85,77,75,81,77,75,100,99,86,29.54,29.42,4,0,12,0.00
2013-7-24,86,73,70,81,72,70,100,99,85,29.55,29.41,1,0,5,0.01
2013-7-25,79,72,68,77,72,68,100,100,93,29.72,29.53,3,1,9,0.01
2013-7-26,77,66,61,74,66,61,100,100,84,29.81,29.72,0,0,3,0.00
2013-7-27,79,70,64,79,70,64,100,100,100,29.77,29.64,1,0,3,0.00
2013-7-28,81,74,72,81,74,72,100,100,100,29.69,29.62,2,0,8,0.00
2013-7-29,78,74,70,78,74,70,100,100,100,29.85,29.68,2,0,7,0.00
2013-7-30,78,69,63,78,69,63,100,100,100,29.92,29.84,0,0,3,0.00
2013-7-31,82,73,70,80,73,70,100,100,92,29.85,29.71,1,0,5,0.00
2013-8-1,84,78,72,80,77,72,100,98,87,29.72,29.54,1,0,6,0.00
2013-8-2,77,71,68,77,71,68,100,100,100,29.70,29.59,2,0,3,0.00
2013-8-3,86,77,71,85,77,71,100,99,91,29.71,29.60,2,0,8,0.00
2013-8-4,78,71,65,75,70,64,100,100,89,29.73,29.58,2,0,8,0.00
2013-8-5,78,67,61,74,66,61,100,98,69,29.80,29.71,2,0,5,0.00
2013-8-6,79,72,67,77,71,67,100,99,89,29.76,29.70,1,0,6,0.00
2013-8-7,83,72,67,78,71,67,100,99,82,29.80,29.72,2,0,5,0.00
2013-8-8,87,78,70,80,76,70,100,95,75,29.77,29.70,2,0,5,0.00
2013-8-9,90,80,74,83,78,74,100,96,80,29.74,29.66,3,0,14,0.00
2013-8-10,91,79,74,84,78,74,100,98,81,29.80,29.70,3,0,12,0.00
2013-8-11,85,75,72,83,75,72,100,100,93,29.80,29.71,2,0,7,0.00
2013-8-12,89,76,72,83,76,72,100,98,79,29.74,29.63,2,0,7,0.00
2013-8-13,88,77,73,84,74,-100,100,96,81,29.65,29.47,3,0,9,0.00
2013-8-21,87,75,72,82,75,72,100,99,86,29.93,29.79,1,0,8,0.00
2013-8-22,83,74,71,81,74,71,100,100,94,29.84,29.69,2,0,7,0.00
2013-8-23,87,73,69,80,73,69,100,98,77,29.75,29.64,3,0,10,0.01
2013-8-24,70,66,64,70,66,64,100,100,100,30.01,29.77,2,0,8,0.01
2013-8-25,77,63,59,71,59,-100,100,94,69,30.09,29.99,4,0,10,0.00
2013-8-26,79,62,51,69,60,51,100,95,63,30.02,29.80,2,0,5,0.00
2013-8-27,68,62,60,68,62,60,100,100,100,29.81,29.72,0,0,3,0.00
2013-10-2,82,62,56,70,62,56,100,99,64,29.81,29.74,0,0,7,0.00
2013-10-3,73,62,56,71,62,56,100,100,95,29.82,29.77,0,0,3,0.00
2013-10-4,76,68,64,74,68,64,100,99,94,29.83,29.75,1,0,6,0.00
2013-10-5,85,68,61,76,67,61,100,98,71,29.81,29.73,1,0,3,0.00
2013-10-6,82,71,62,77,70,62,100,96,84,29.78,29.66,3,0,8,0.00
2013-10-7,77,72,66,77,72,66,100,100,100,29.68,29.56,3,0,9,0.00
2013-10-8,66,60,58,66,57,54,100,92,83,29.89,29.67,5,2,14,0.00
2013-10-9,60,58,56,60,58,56,100,100,96,29.88,29.75,5,2,14,0.00
2013-10-10,60,58,55,60,58,55,100,100,100,29.74,29.60,4,2,12,0.00
2013-10-18,68,61,54,68,61,54,100,99,82,29.73,29.56,2,0,7,0.00
2013-10-19,68,63,60,68,63,60,100,100,100,29.68,29.52,1,0,5,0.00
2013-10-20,61,50,43,61,48,-100,100,97,87,29.82,29.58,2,0,7,0.00
2013-10-21,66,47,36,54,44,36,100,93,54,29.87,29.72,2,0,5,0.00
2013-10-22,64,56,48,63,56,48,100,99,94,29.71,29.52,1,0,9,0.00
2013-10-23,64,57,48,59,54,42,100,90,71,29.67,29.37,4,1,12,0.00
2013-10-24,57,44,36,44,40,36,100,89,57,29.88,29.67,3,0,9,0.00
2013-10-25,54,41,34,42,38,34,100,88,53,30.05,29.87,5,1,9,0.00
2013-10-26,59,39,28,43,35,28,100,87,47,30.05,29.75,5,0,12,0.00
2013-10-27,66,51,41,47,41,-100,94,72,50,29.83,29.73,3,0,7,0.00
2013-10-28,70,52,40,57,47,-100,100,88,53,29.96,29.83,2,0,7,0.00
2013-10-29,70,58,52,63,57,52,100,95,74,30.03,29.94,2,0,5,0.00
2013-10-30,71,59,52,66,58,52,100,97,78,30.00,29.86,2,0,7,0.00
2013-12-10,47,42,31,47,42,31,100,100,99,30.01,29.62,3,0,9,0.48
2013-12-11,48,32,24,35,30,24,100,92,52,30.14,29.98,3,0,6,0.03
2013-12-12,43,33,24,31,26,17,100,78,45,30.11,29.96,5,1,9,0.00
2013-12-13,47,29,21,32,25,21,100,87,46,30.07,29.97,3,0,12,0.00
2013-12-14,47,39,33,43,36,-100,100,93,64,30.00,29.47,3,1,8,0.15
2013-12-15,53,44,35,48,40,32,100,89,70,29.75,29.38,4,1,12,0.06
2013-12-16,53,37,30,40,34,29,100,88,60,29.87,29.74,3,0,7,0.00
2013-12-22,78,71,65,72,68,64,100,91,76,29.82,29.72,6,2,16,0.11
2013-12-23,68,63,50,68,63,50,100,100,100,29.84,29.69,4,1,12,1.61
2013-12-24,50,41,30,50,36,22,100,83,64,30.14,29.82,3,1,24,0.02
2013-12-25,37,27,22,22,20,17,94,76,51,30.26,30.10,3,0,7,0.00
2013-12-26,49,32,22,36,29,21,100,90,57,30.10,29.94,1,0,5,0.06
2013-12-27,50,32,26,32,28,25,100,87,47,30.14,30.05,1,0,3,0.01
2013-12-28,53,33,24,40,28,-100,100,88,52,30.10,29.87,3,0,6,0.01